TimeEST,TemperatureF,Dew PointF,Humidity,Sea Level PressureIn,VisibilityMPH,Wind Direction,Wind SpeedMPH,Gust SpeedMPH,PrecipitationIn,Events,Conditions,WindDirDegrees,DateUTC
12:15 AM,26.6,24.8,93,30.39,10.0,Calm,Calm,-,N/A,,Clear,0,2012-11-29 05:15:00
12:35 AM,26.6,24.8,93,30.39,10.0,Calm,Calm,-,N/A,,Clear,0,2012-11-29 05:35:00
12:55 AM,26.6,24.8,93,30.39,10.0,Calm,Calm,-,N/A,,Clear,0,2012-11-29 05:55:00
1:15 AM,26.6,21.2,80,30.39,10.0,Calm,Calm,-,N/A,,Clear,0,2012-11-29 06:15:00
1:35 AM,24.8,21.2,86,30.39,10.0,Calm,Calm,-,N/A,,Clear,0,2012-11-29 06:35:00
1:55 AM,26.6,21.2,80,30.40,10.0,Calm,Calm,-,N/A,,Clear,0,2012-11-29 06:55:00
2:15 AM,26.6,23.0,86,30.40,10.0,West,3.5,-,N/A,,Clear,280,2012-11-29 07:15:00
2:35 AM,24.8,19.4,80,30.41,10.0,Calm,Calm,-,N/A,,Clear,0,2012-11-29 07:35:00
2:55 AM,24.8,21.2,86,30.41,10.0,Calm,Calm,-,N/A,,Clear,0,2012-11-29 07:55:00
3:15 AM,24.8,21.2,86,30.41,10.0,Calm,Calm,-,N/A,,Clear,0,2012-11-29 08:15:00
3:35 AM,24.8,19.4,80,30.41,10.0,Calm,Calm,-,N/A,,Clear,0,2012-11-29 08:35:00
3:55 AM,24.8,21.2,86,30.41,10.0,Calm,Calm,-,N/A,,Clear,0,2012-11-29 08:55:00
4:15 AM,24.8,21.2,86,30.41,10.0,Calm,Calm,-,N/A,,Clear,0,2012-11-29 09:15:00
4:35 AM,24.8,19.4,80,30.40,10.0,Calm,Calm,-,N/A,,Clear,0,2012-11-29 09:35:00
4:55 AM,23.0,19.4,86,30.40,10.0,Calm,Calm,-,N/A,,Clear,0,2012-11-29 09:55:00
5:15 AM,24.8,21.2,86,30.41,10.0,Calm,Calm,-,N/A,,Clear,0,2012-11-29 10:15:00
5:35 AM,23.0,19.4,86,30.41,10.0,Calm,Calm,-,N/A,,Clear,0,2012-11-29 10:35:00
5:55 AM,23.0,19.4,86,30.41,10.0,Calm,Calm,-,N/A,,Clear,0,2012-11-29 10:55:00
6:15 AM,23.0,19.4,86,30.42,10.0,Calm,Calm,-,N/A,,Clear,0,2012-11-29 11:15:00
6:35 AM,21.2,17.6,86,30.43,10.0,Calm,Calm,-,N/A,,Clear,0,2012-11-29 11:35:00
6:55 AM,23.0,19.4,86,30.44,10.0,Calm,Calm,-,N/A,,Clear,0,2012-11-29 11:55:00
7:15 AM,23.0,19.4,86,30.44,10.0,Calm,Calm,-,N/A,,Clear,0,2012-11-29 12:15:00
7:35 AM,23.0,19.4,86,30.45,10.0,Calm,Calm,-,N/A,,Clear,0,2012-11-29 12:35:00
7:55 AM,26.6,24.8,93,30.45,10.0,Calm,Calm,-,N/A,,Clear,0,2012-11-29 12:55:00
8:15 AM,30.2,24.8,80,30.46,10.0,Calm,Calm,-,N/A,,Clear,0,2012-11-29 13:15:00
8:35 AM,33.8,26.6,75,30.46,10.0,Calm,Calm,-,N/A,,Clear,0,2012-11-29 13:35:00
8:55 AM,35.6,28.4,75,30.47,10.0,Calm,Calm,-,N/A,,Clear,0,2012-11-29 13:55:00
9:15 AM,39.2,28.4,65,30.47,10.0,NE,3.5,-,N/A,,Clear,50,2012-11-29 14:15:00
9:35 AM,42.8,26.6,53,30.48,10.0,Calm,Calm,-,N/A,,Clear,0,2012-11-29 14:35:00
9:55 AM,44.6,24.8,46,30.48,10.0,ESE,3.5,-,N/A,,Clear,110,2012-11-29 14:55:00
10:15 AM,44.6,24.8,46,30.48,10.0,East,4.6,-,N/A,,Clear,90,2012-11-29 15:15:00
10:35 AM,46.4,23.0,40,30.49,10.0,SE,5.8,-,N/A,,Clear,130,2012-11-29 15:35:00
10:55 AM,46.4,21.2,37,30.48,10.0,Calm,Calm,-,N/A,,Clear,0,2012-11-29 15:55:00
11:15 AM,48.2,24.8,40,30.48,10.0,Calm,Calm,-,N/A,,Clear,0,2012-11-29 16:15:00
11:35 AM,51.8,24.8,35,30.47,10.0,Calm,Calm,-,N/A,,Clear,0,2012-11-29 16:35:00
11:55 AM,51.8,24.8,35,30.46,10.0,Calm,Calm,-,N/A,,Clear,0,2012-11-29 16:55:00
12:15 PM,53.6,26.6,35,30.45,10.0,WSW,5.8,-,N/A,,Clear,240,2012-11-29 17:15:00
12:35 PM,53.6,26.6,35,30.44,10.0,SSW,8.1,-,N/A,,Clear,210,2012-11-29 17:35:00
12:55 PM,53.6,26.6,35,30.43,10.0,West,5.8,-,N/A,,Clear,260,2012-11-29 17:55:00
1:15 PM,55.4,28.4,36,30.42,10.0,Calm,Calm,-,N/A,,Clear,0,2012-11-29 18:15:00
1:35 PM,55.4,28.4,36,30.42,10.0,SW,9.2,-,N/A,,Clear,220,2012-11-29 18:35:00
1:55 PM,55.4,28.4,36,30.41,10.0,SSW,4.6,-,N/A,,Clear,210,2012-11-29 18:55:00
2:15 PM,55.4,28.4,36,30.40,10.0,South,6.9,-,N/A,,Clear,170,2012-11-29 19:15:00
2:35 PM,55.4,28.4,36,30.39,10.0,WSW,8.1,-,N/A,,Clear,250,2012-11-29 19:35:00
2:55 PM,55.4,30.2,38,30.39,10.0,WSW,4.6,-,N/A,,Clear,250,2012-11-29 19:55:00
3:15 PM,55.4,30.2,38,30.39,10.0,SW,8.1,-,N/A,,Clear,230,2012-11-29 20:15:00
3:35 PM,55.4,30.2,38,30.38,10.0,SW,6.9,-,N/A,,Clear,230,2012-11-29 20:35:00
3:55 PM,55.4,30.2,38,30.39,10.0,West,5.8,-,N/A,,Clear,280,2012-11-29 20:55:00
4:15 PM,55.4,30.2,38,30.38,10.0,SW,6.9,-,N/A,,Clear,230,2012-11-29 21:15:00
4:35 PM,53.6,30.2,41,30.38,10.0,WSW,4.6,-,N/A,,Clear,240,2012-11-29 21:35:00
4:55 PM,50.0,30.2,47,30.38,10.0,SW,4.6,-,N/A,,Clear,220,2012-11-29 21:55:00
5:15 PM,48.2,30.2,50,30.38,10.0,SW,3.5,-,N/A,,Clear,220,2012-11-29 22:15:00
5:35 PM,46.4,30.2,53,30.38,10.0,SW,3.5,-,N/A,,Clear,220,2012-11-29 22:35:00
5:55 PM,44.6,30.2,57,30.39,10.0,Calm,Calm,-,N/A,,Clear,0,2012-11-29 22:55:00
6:15 PM,42.8,30.2,61,30.39,10.0,Calm,Calm,-,N/A,,Clear,0,2012-11-29 23:15:00
6:35 PM,42.8,30.2,61,30.39,10.0,Calm,Calm,-,N/A,,Clear,0,2012-11-29 23:35:00
6:55 PM,42.8,30.2,61,30.40,10.0,Calm,Calm,-,N/A,,Clear,0,2012-11-29 23:55:00
7:15 PM,39.2,30.2,70,30.40,10.0,Calm,Calm,-,N/A,,Clear,0,2012-11-30 00:15:00
7:35 PM,39.2,30.2,70,30.40,10.0,Calm,Calm,-,N/A,,Clear,0,2012-11-30 00:35:00
7:55 PM,35.6,28.4,75,30.41,10.0,Calm,Calm,-,N/A,,Clear,0,2012-11-30 00:55:00
8:15 PM,35.6,28.4,75,30.41,10.0,Calm,Calm,-,N/A,,Clear,0,2012-11-30 01:15:00
8:35 PM,33.8,28.4,81,30.41,10.0,Calm,Calm,-,N/A,,Clear,0,2012-11-30 01:35:00
8:55 PM,33.8,26.6,75,30.41,10.0,Calm,Calm,-,N/A,,Clear,0,2012-11-30 01:55:00
9:15 PM,33.8,28.4,81,30.41,10.0,Calm,Calm,-,N/A,,Clear,0,2012-11-30 02:15:00
9:35 PM,32.0,26.6,80,30.41,10.0,Calm,Calm,-,N/A,,Clear,0,2012-11-30 02:35:00
9:55 PM,32.0,28.4,87,30.41,10.0,Calm,Calm,-,N/A,,Clear,0,2012-11-30 02:55:00
10:15 PM,30.2,26.6,86,30.41,10.0,Calm,Calm,-,N/A,,Clear,0,2012-11-30 03:15:00
10:35 PM,30.2,26.6,86,30.40,10.0,Calm,Calm,-,N/A,,Clear,0,2012-11-30 03:35:00
10:55 PM,30.2,26.6,86,30.40,10.0,Calm,Calm,-,N/A,,Clear,0,2012-11-30 03:55:00
11:15 PM,30.2,26.6,86,30.40,10.0,Calm,Calm,-,N/A,,Clear,0,2012-11-30 04:15:00
11:35 PM,30.2,26.6,86,30.40,10.0,Calm,Calm,-,N/A,,Clear,0,2012-11-30 04:35:00
11:55 PM,30.2,26.6,86,30.40,10.0,Calm,Calm,-,N/A,,Clear,0,2012-11-30 04:55:00